Snowfall_Accumulation
0.0 0.0 0.0 0.0 0.0 0.0 0.0 0.0 0.1 0.3 0.0 0.0 0.0 0.0 0.0 0.0 0.0 0.0 0.0 nan nan nan nan nan nan nan nan nan nan nan nan nan nan nan nan nan nan nan
0.0 0.0 0.0 0.0 0.0 0.0 0.0 0.0 0.0 0.0 0.1 0.0 0.0 0.0 0.0 0.0 0.0 0.0 0.0 nan nan nan nan nan nan nan nan nan nan nan nan nan nan nan nan nan nan nan
0.0 0.0 0.0 0.0 0.0 0.0 0.0 0.0 0.0 0.0 0.0 0.0 0.0 0.0 0.0 0.0 0.0 0.0 0.0 0.0 0.0 nan nan nan nan nan nan nan nan nan nan nan nan nan nan nan nan nan
0.0 0.0 0.0 0.0 0.0 0.0 0.0 0.0 0.0 0.0 0.0 0.0 0.0 0.0 0.0 0.0 0.0 0.0 0.0 0.0 0.0 nan nan nan nan nan nan nan nan nan nan nan nan nan nan nan nan nan
0.0 0.0 0.0 0.0 0.0 0.0 0.0 0.0 0.0 0.0 0.0 0.0 0.0 0.0 0.0 0.0 0.0 0.0 0.0 0.0 0.0 nan nan nan nan nan nan nan nan nan nan nan nan nan nan nan nan nan
0.0 0.0 0.0 0.0 0.0 0.0 0.0 0.0 0.0 0.0 0.0 0.0 0.0 0.0 0.0 0.0 0.0 0.0 0.0 0.0 0.0 0.0 nan nan nan nan nan nan nan nan nan nan nan nan nan nan nan nan
0.0 0.0 0.0 nan nan nan 0.0 0.0 0.0 0.0 0.0 0.0 0.0 0.0 0.0 0.0 0.0 0.0 0.1 0.0 0.0 0.0 0.0 0.0 0.0 0.0 0.0 nan nan nan nan nan nan nan nan nan nan nan
0.0 0.0 0.0 0.0 0.0 nan nan nan nan 0.0 0.0 0.1 0.0 0.1 0.0 0.0 0.2 0.1 0.0 0.1 0.5 0.0 0.0 0.1 0.0 0.0 0.0 0.0 nan nan nan nan nan nan nan nan nan nan
0.0 0.0 0.0 0.0 nan 0.0 nan nan nan nan 0.0 0.0 0.1 0.1 0.2 0.0 0.0 0.0 0.0 0.0 0.0 0.0 0.1 0.3 0.1 0.1 0.0 0.0 nan nan nan nan nan nan nan nan nan nan
0.0 0.0 0.0 0.0 0.0 0.0 0.0 0.0 0.0 0.0 0.0 0.0 0.0 0.0 0.0 0.0 0.0 0.0 0.1 0.1 0.1 0.0 0.0 2.2 0.3 0.3 0.2 0.0 nan nan nan nan nan nan nan nan nan nan
0.0 0.0 0.0 0.0 nan nan 0.1 0.1 0.0 0.0 nan nan nan nan nan nan nan 0.8 1.5 2.5 2.4 0.4 0.2 0.6 0.4 0.4 0.2 0.2 0.2 nan nan nan nan nan nan nan nan nan
0.0 0.0 nan 0.0 nan nan 0.2 0.3 0.6 0.0 0.0 0.0 0.0 0.0 nan nan nan 0.0 0.7 2.8 1.0 1.2 0.3 1.3 0.2 0.5 1.4 0.4 0.2 0.2 0.2 nan nan nan nan nan nan 0.0
0.3 0.3 0.2 nan nan nan nan 0.3 0.5 0.0 0.0 0.3 0.2 0.3 0.2 0.2 0.4 0.3 0.1 1.2 1.6 0.7 0.0 0.6 0.5 0.4 0.9 0.8 0.4 0.3 0.3 0.4 0.3 0.3 nan nan nan 0.0
0.3 0.3 0.4 nan nan nan 0.5 nan nan 0.3 2.2 2.0 1.7 1.1 1.0 0.8 0.3 0.3 0.1 0.2 0.2 0.2 0.0 0.3 4.1 1.2 1.2 1.1 0.8 0.4 0.5 0.6 1.5 0.8 0.6 nan nan nan
0.7 0.6 nan nan nan 0.5 nan nan 0.0 3.2 3.4 4.9 2.3 1.1 0.7 0.5 0.1 0.3 0.1 0.1 0.1 0.1 0.0 0.1 0.9 0.2 0.9 1.4 1.8 1.5 2.2 1.1 0.7 1.0 1.0 0.7 0.6 0.4
0.1 0.8 0.0 0.8 0.0 0.3 1.1 1.6 2.4 2.5 2.9 2.6 1.7 0.8 0.6 1.0 1.1 0.7 1.0 1.1 2.1 2.4 0.1 0.1 0.1 0.1 1.4 0.7 0.6 0.9 0.6 2.7 1.2 1.0 1.1 1.1 0.8 0.6
1.8 2.9 1.8 1.4 1.5 1.3 1.5 1.5 1.3 1.3 2.3 2.1 2.2 1.7 1.3 1.1 1.4 1.2 1.1 0.9 2.1 1.2 1.1 1.0 0.1 0.1 0.5 0.3 2.2 0.5 0.9 1.1 1.0 1.4 1.1 1.0 0.6 0.6
2.8 3.7 6.6 7.4 4.6 2.0 2.9 2.6 1.9 1.6 1.6 1.8 3.0 2.1 2.1 2.2 2.2 2.0 1.5 1.8 2.5 1.4 1.0 0.6 0.7 2.2 1.4 1.1 0.8 1.3 3.6 2.7 1.5 0.9 1.3 2.4 1.1 0.9
5.4 4.2 10.2 11.6 6.3 2.5 2.3 2.2 3.4 3.0 1.0 2.0 2.9 3.6 3.8 2.8 3.9 3.1 2.9 2.7 2.8 1.3 1.1 1.1 1.3 1.5 3.4 12.2 1.3 nan 2.5 1.2 1.9 2.3 1.5 2.7 3.2 1.8
2.1 4.3 7.1 6.9 3.1 1.9 1.9 2.2 2.4 3.7 4.0 3.1 4.9 6.8 8.0 5.7 5.1 3.3 2.9 5.0 2.8 1.3 0.8 0.6 0.9 1.2 2.7 6.4 10.3 5.1 nan 3.7 3.4 4.2 2.8 1.9 1.2 nan
2.2 2.3 4.4 4.0 3.7 2.6 8.4 9.5 12.1 10.4 10.3 13.0 7.0 7.2 15.1 4.2 4.9 3.3 3.5 3.2 2.5 1.1 1.4 1.3 1.0 0.0 1.3 3.9 18.7 7.3 5.6 nan 1.7 2.2 1.8 3.3 2.1 1.0
5.1 3.6 3.2 3.5 5.7 5.2 11.9 17.9 15.4 14.5 10.5 7.5 15.0 19.8 17.1 8.0 7.1 6.2 7.2 5.8 2.2 2.3 1.6 1.0 0.6 0.6 1.9 2.6 4.0 9.1 3.9 3.9 nan nan nan nan 4.8 5.8
9.4 4.3 5.7 6.9 6.4 8.2 4.9 10.4 4.9 20.7 9.1 9.0 8.3 8.2 33.0 11.2 5.5 5.5 5.7 3.7 2.3 2.6 1.8 1.8 0.8 0.6 1.0 1.0 2.4 4.0 2.5 5.0 2.3 1.6 4.0 nan nan nan
Water_Equivalent
0.00 0.00 0.00 0.00 0.00 0.00 0.00 0.00 0.04 0.07 0.00 0.00 0.00 0.00 0.00 0.00 0.00 0.00 0.00 nan nan nan nan nan nan nan nan nan nan nan nan nan nan nan nan nan nan nan
0.00 0.00 0.00 0.00 0.00 0.00 0.00 0.00 0.00 0.00 0.02 0.00 0.00 0.00 0.00 0.00 0.00 0.00 0.00 nan nan nan nan nan nan nan nan nan nan nan nan nan nan nan nan nan nan nan
0.00 0.00 0.00 0.00 0.00 0.00 0.00 0.00 0.00 0.00 0.00 0.00 0.00 0.00 0.00 0.00 0.00 0.00 0.00 0.00 0.00 nan nan nan nan nan nan nan nan nan nan nan nan nan nan nan nan nan
0.00 0.00 0.00 0.00 0.00 0.00 0.00 0.00 0.00 0.00 0.00 0.00 0.00 0.00 0.00 0.00 0.00 0.00 0.00 0.00 0.00 nan nan nan nan nan nan nan nan nan nan nan nan nan nan nan nan nan
0.00 0.00 0.00 0.00 0.00 0.00 0.00 0.00 0.00 0.00 0.00 0.00 0.00 0.00 0.00 0.00 0.00 0.00 0.00 0.00 0.00 nan nan nan nan nan nan nan nan nan nan nan nan nan nan nan nan nan
0.00 0.00 0.00 0.00 0.00 0.00 0.00 0.00 0.00 0.00 0.00 0.00 0.00 0.00 0.00 0.00 0.00 0.00 0.00 0.00 0.00 0.00 nan nan nan nan nan nan nan nan nan nan nan nan nan nan nan nan
0.00 0.00 0.00 nan nan nan 0.00 0.00 0.00 0.00 0.00 0.00 0.00 0.00 0.00 0.00 0.00 0.00 0.01 0.00 0.00 0.00 0.00 0.00 0.00 0.00 0.00 nan nan nan nan nan nan nan nan nan nan nan
0.00 0.00 0.00 0.00 0.00 nan nan nan nan 0.00 0.00 0.02 0.00 0.01 0.00 0.00 0.03 0.02 0.01 0.04 0.11 0.01 0.01 0.03 0.00 0.00 0.00 0.00 nan nan nan nan nan nan nan nan nan nan
0.00 0.00 0.00 0.00 nan 0.00 nan nan nan nan 0.00 0.00 0.02 0.01 0.03 0.00 0.00 0.00 0.00 0.01 0.01 0.00 0.03 0.09 0.05 0.04 0.00 0.00 nan nan nan nan nan nan nan nan nan nan
0.00 0.00 0.00 0.00 0.00 0.00 0.00 0.00 0.00 0.00 0.00 0.00 0.00 0.00 0.00 0.00 0.00 0.00 0.01 0.01 0.04 0.01 0.01 0.42 0.09 0.09 0.05 0.01 nan nan nan nan nan nan nan nan nan nan
0.00 0.00 0.00 0.00 nan nan 0.02 0.02 0.00 0.00 nan nan nan nan nan nan nan 0.18 0.34 0.50 0.54 0.12 0.06 0.13 0.12 0.11 0.08 0.08 0.06 nan nan nan nan nan nan nan nan nan
0.00 0.00 nan 0.00 nan nan 0.04 0.05 0.10 0.01 0.00 0.00 0.00 0.00 nan nan nan 0.00 0.14 0.51 0.23 0.22 0.08 0.26 0.04 0.10 0.30 0.10 0.08 0.09 0.08 nan nan nan nan nan nan 0.01
0.10 0.08 0.06 nan nan nan nan 0.05 0.08 0.01 0.01 0.06 0.05 0.09 0.05 0.04 0.09 0.07 0.03 0.27 0.33 0.16 0.00 0.12 0.11 0.08 0.17 0.17 0.12 0.10 0.10 0.13 0.12 0.11 nan nan nan 0.02
0.08 0.10 0.10 nan nan nan 0.12 nan nan 0.06 0.52 0.45 0.36 0.24 0.22 0.19 0.09 0.09 0.01 0.05 0.07 0.03 0.00 0.06 0.72 0.22 0.22 0.23 0.17 0.11 0.13 0.16 0.34 0.22 0.20 nan nan nan
0.20 0.16 nan nan nan 0.16 nan nan 0.00 0.66 0.72 0.92 0.44 0.23 0.15 0.12 0.03 0.07 0.02 0.02 0.02 0.03 0.01 0.03 0.21 0.03 0.20 0.26 0.34 0.31 0.47 0.27 0.19 0.28 0.29 0.21 0.17 0.14
0.03 0.19 0.00 0.20 0.00 0.07 0.25 0.38 0.55 0.57 0.60 0.51 0.33 0.16 0.14 0.23 0.25 0.16 0.25 0.26 0.47 0.51 0.03 0.02 0.02 0.03 0.31 0.15 0.12 0.19 0.15 0.51 0.28 0.25 0.29 0.30 0.22 0.17
0.40 0.61 0.37 0.28 0.30 0.27 0.34 0.33 0.29 0.30 0.47 0.43 0.43 0.33 0.26 0.23 0.30 0.29 0.27 0.21 0.44 0.26 0.23 0.24 0.02 0.03 0.14 0.06 0.47 0.12 0.19 0.24 0.22 0.32 0.28 0.26 0.18 0.18
0.52 0.65 1.12 1.26 0.77 0.38 0.54 0.50 0.39 0.34 0.33 0.37 0.62 0.42 0.42 0.45 0.42 0.44 0.34 0.39 0.48 0.29 0.22 0.14 0.18 0.49 0.33 0.26 0.20 0.28 0.77 0.53 0.32 0.19 0.31 0.54 0.25 0.23
0.94 0.74 1.46 1.74 1.06 0.45 0.41 0.41 0.60 0.57 0.18 0.42 0.57 0.68 0.69 0.53 0.73 0.60 0.61 0.55 0.56 0.28 0.23 0.26 0.29 0.35 0.57 1.75 0.27 nan 0.48 0.25 0.42 0.53 0.36 0.59 0.64 0.39
0.37 0.70 1.03 1.05 0.52 0.32 0.33 0.37 0.42 0.67 0.71 0.57 0.87 1.16 1.33 0.90 0.85 0.58 0.54 0.79 0.54 0.27 0.16 0.13 0.21 0.27 0.50 0.99 1.75 1.02 nan 0.81 0.71 0.78 0.54 0.42 0.27 nan
0.37 0.38 0.68 0.59 0.56 0.40 1.25 1.40 1.75 1.55 1.56 1.98 1.16 1.18 2.61 0.72 0.85 0.61 0.64 0.66 0.58 0.23 0.27 0.25 0.21 0.00 0.27 0.77 3.23 1.38 1.14 nan 0.38 0.46 0.39 0.64 0.41 0.22
0.76 0.51 0.48 0.54 0.82 0.73 1.58 2.49 2.23 2.17 1.52 1.12 2.12 3.13 2.84 1.26 1.04 0.89 1.11 0.95 0.42 0.44 0.29 0.20 0.12 0.14 0.39 0.44 0.65 1.74 0.75 0.77 nan nan nan nan 0.81 0.89
1.34 0.61 0.86 1.03 0.98 1.22 0.70 1.38 0.66 2.99 1.22 1.23 1.14 1.16 5.33 1.52 0.81 0.86 0.94 0.65 0.43 0.46 0.33 0.33 0.17 0.13 0.21 0.20 0.44 0.72 0.43 1.01 0.48 0.34 0.79 nan nan nan
SL_Ratio
nan nan nan nan nan nan nan nan 3.4 4.7 nan nan nan nan nan nan nan nan nan nan nan nan nan nan nan nan nan nan nan nan nan nan nan nan nan nan nan nan
nan nan nan nan nan nan nan nan nan 4.4 5.9 nan nan nan nan nan nan nan nan nan nan nan nan nan nan nan nan nan nan nan nan nan nan nan nan nan nan nan
nan nan nan nan nan nan nan nan nan nan nan nan nan nan nan nan nan nan nan nan nan nan nan nan nan nan nan nan nan nan nan nan nan nan nan nan nan nan
nan nan nan nan nan nan nan nan nan nan nan nan nan nan nan nan nan nan nan nan nan nan nan nan nan nan nan nan nan nan nan nan nan nan nan nan nan nan
nan nan nan nan nan nan nan nan nan nan nan nan nan nan nan nan nan nan nan nan nan nan nan nan nan nan nan nan nan nan nan nan nan nan nan nan nan nan
nan nan nan nan nan nan nan nan nan nan nan nan nan nan nan nan nan nan nan nan nan nan nan nan nan nan nan nan nan nan nan nan nan nan nan nan nan nan
nan nan nan nan nan nan nan nan nan nan nan nan nan nan nan nan nan nan 6.2 nan nan nan nan nan nan nan nan nan nan nan nan nan nan nan nan nan nan nan
nan nan nan nan nan nan nan nan nan nan nan 5.1 6.0 5.9 nan nan 6.1 6.1 5.9 3.5 4.3 2.8 3.0 3.0 nan nan nan nan nan nan nan nan nan nan nan nan nan nan
nan nan nan nan nan nan nan nan nan nan nan 5.0 5.4 5.6 6.2 nan nan nan nan 5.9 5.9 nan 3.4 3.5 3.0 2.9 3.1 nan nan nan nan nan nan nan nan nan nan nan
nan nan nan nan nan nan nan nan nan nan nan nan nan nan nan nan nan 10.0 5.9 5.6 3.4 2.9 2.9 5.2 2.9 3.2 3.1 2.9 nan nan nan nan nan nan nan nan nan nan
nan nan nan nan nan nan 4.6 4.5 6.7 nan nan nan nan nan nan nan nan 4.4 4.4 5.1 4.5 3.5 3.0 4.2 3.2 3.2 2.8 2.5 2.5 nan nan nan nan nan nan nan nan nan
nan nan nan nan nan nan 5.1 5.4 5.6 4.7 nan 0.0 nan nan nan nan nan 4.4 4.7 5.5 4.5 5.3 3.4 4.9 3.9 4.6 4.8 3.5 2.9 2.6 2.5 nan nan nan nan nan nan 2.5
3.6 3.5 3.1 nan nan nan nan 5.2 5.9 4.8 4.8 4.5 4.1 3.8 3.8 4.1 3.8 3.9 4.2 4.5 4.9 4.8 3.3 5.1 4.8 4.4 5.5 4.7 3.5 3.3 3.4 2.9 2.8 3.1 nan nan nan 2.5
4.0 3.6 3.9 nan nan nan 3.9 nan nan 3.9 4.2 4.5 4.7 4.6 4.5 4.2 4.0 3.9 4.5 3.8 3.6 4.9 nan 5.5 5.8 5.4 5.3 5.0 4.7 3.6 3.5 3.5 4.4 3.4 2.8 nan nan nan
3.8 3.8 nan nan nan 3.0 nan nan 2.9 4.8 4.7 5.3 5.1 4.9 4.5 4.1 4.0 3.9 4.4 4.1 4.1 4.5 4.3 4.4 4.2 4.8 4.6 5.4 5.4 4.8 4.7 4.3 3.6 3.7 3.6 3.4 3.4 2.9
4.2 4.1 nan 4.1 nan 4.3 4.3 4.2 4.3 4.4 4.8 5.1 5.2 4.9 4.2 4.2 4.3 4.0 4.2 4.3 4.6 4.7 4.1 4.2 4.4 4.7 4.4 4.3 4.7 4.5 4.1 5.3 4.3 4.0 3.8 3.7 3.6 3.4
4.6 4.8 4.8 4.9 5.1 4.8 4.6 4.5 4.4 4.4 4.8 4.8 5.1 5.1 5.0 4.8 4.6 4.0 4.1 4.3 4.8 4.6 4.6 4.1 4.0 4.1 3.9 4.6 4.7 4.2 4.5 4.7 4.4 4.4 4.0 3.9 3.5 3.4
5.5 5.6 5.9 5.9 6.0 5.3 5.3 5.2 4.8 4.6 4.7 4.8 4.8 4.9 5.1 5.0 5.1 4.6 4.4 4.7 5.1 4.8 4.6 4.3 4.1 4.5 4.3 4.4 4.3 4.7 4.6 5.0 4.9 4.5 4.1 4.5 4.5 3.8
5.7 5.7 7.0 6.7 6.0 5.6 5.6 5.5 5.7 5.2 5.7 4.9 5.1 5.3 5.5 5.3 5.3 5.1 4.8 4.9 5.0 4.8 4.6 4.1 4.3 4.3 5.8 6.9 4.6 nan 5.1 4.7 4.6 4.4 4.1 4.5 5.0 4.7
5.5 6.2 7.0 6.6 6.0 5.9 5.8 6.0 5.7 5.6 5.7 5.5 5.7 5.9 6.0 6.3 5.9 5.7 5.3 6.3 5.3 4.8 4.6 4.2 4.4 4.3 5.3 6.4 5.9 5.0 nan 4.6 4.8 5.4 5.2 4.4 4.5 nan
5.9 6.1 6.5 6.7 6.7 6.5 6.7 6.8 6.9 6.7 6.6 6.5 6.0 6.1 5.8 5.8 5.8 5.4 5.5 4.8 4.3 4.8 5.2 5.0 4.7 nan 5.0 5.0 5.8 5.3 4.9 nan 4.4 4.7 4.7 5.2 5.0 4.6
6.8 7.1 6.6 6.6 6.9 7.2 7.5 7.2 6.9 6.7 6.9 6.7 7.1 6.3 6.0 6.4 6.9 7.0 6.6 6.1 5.2 5.3 5.5 5.0 4.6 4.7 4.8 5.8 6.2 5.2 5.2 5.1 nan nan nan nan 5.9 6.5
7.0 6.9 6.6 6.7 6.5 6.7 7.0 7.6 7.4 6.9 7.4 7.3 7.3 7.0 6.2 7.3 6.8 6.4 6.1 5.7 5.4 5.5 5.4 5.4 4.9 4.7 4.9 5.2 5.5 5.5 5.7 5.0 4.8 4.9 5.1 nan nan nan